This is the latest recevied weather packets stored in our database for station/object WB4E-13. If no packets are shown the sender has not sent any weather packets the latest 10 day(s).
| Time | Temp. | Humidity | Pressure | Rain* | Wind** | Luminosity | Snow |
|---|---|---|---|---|---|---|---|
| 1777504358 | 23.89° C | 68% | 1006.8 hPa | 0 mm | - | - | - |
| 1777503758 | 23.89° C | 68% | 1006.8 hPa | 0 mm | - | - | - |
| 1777503157 | 23.89° C | 68% | 1006.7 hPa | 0 mm | - | - | - |
| 1777502562 | 23.89° C | 69% | 1006.8 hPa | 0 mm | - | - | - |
| 1777501962 | 24.44° C | 69% | 1006.7 hPa | 0 mm | - | - | - |
| 1777501362 | 24.44° C | 69% | 1006.6 hPa | 0 mm | - | - | - |
| 1777500762 | 23.89° C | 69% | 1006.5 hPa | 0 mm | - | - | - |
| 1777500162 | 24.44° C | 68% | 1006.2 hPa | 0 mm | - | - | - |
| 1777499561 | 24.44° C | 69% | 1006.2 hPa | 0 mm | - | - | - |
| 1777498960 | 23.89° C | 71% | 1006.2 hPa | 0 mm | - | - | - |
| 1777498360 | 23.89° C | 71% | 1006.2 hPa | 0 mm | - | - | - |
| 1777497799 | 23.89° C | 73% | 1006.2 hPa | 0 mm | - | - | - |
| 1777497760 | 23.89° C | 73% | 1006.2 hPa | 0 mm | - | - | - |
| 1777497160 | 23.89° C | 72% | 1006.1 hPa | 0 mm | - | - | - |
| 1777496560 | 23.89° C | 72% | 1006.2 hPa | 0 mm | - | - | - |
| 1777495959 | 24.44° C | 75% | 1006.1 hPa | 0 mm | - | - | - |
| 1777495359 | 24.44° C | 77% | 1006.2 hPa | 0 mm | - | - | - |
| 1777494759 | 24.44° C | 73% | 1006.4 hPa | 0 mm | - | - | - |
| 1777494159 | 25° C | 71% | 1006.3 hPa | 0 mm | - | - | - |
| 1777493558 | 24.44° C | 75% | 1006.5 hPa | 0 mm | - | - | - |
| 1777492958 | 24.44° C | 75% | 1006.8 hPa | 0 mm | - | - | - |
| 1777492358 | 24.44° C | 75% | 1006.8 hPa | 0 mm | - | - | - |
| 1777491758 | 24.44° C | 74% | 1007 hPa | 0 mm | - | - | - |
| 1777491158 | 24.44° C | 74% | 1007.2 hPa | 0 mm | - | - | - |
| 1777490558 | 23.89° C | 78% | 1007.5 hPa | 0 mm | - | - | - |
* Rain latest hour (hover to see other rain measurements)
** Current wind speed in m/s (hover to see current wind gust speed)